Location: Brotuna
(46.2000°N, 22.6000°E)
Time: 06:19:52
(UTC+00:00)

USA 234 - Pass Details

Date: 09 April 2020
Orbit: 1102 x 1106 km, 123.0° (Epoch: 14 May)

Event Time Altitude Azimuth Distance (km) Brightness Sun altitude
Rises 19:49:04 0° 52° (NE) 3,926 6.1 -24.9°
Reaches altitude 10° 19:51:34 10° 55° (NE) 2,966 5.4 -25.2°
Maximum altitude 19:58:07 72° 139° (SE) 1,155 3.1 -26.0°
Drops below altitude 10° 20:04:38 10° 224° (SW) 2,956 5.5 -26.8°
Sets 20:07:08 0° 226° (SW) 3,912 6.1 -27.0°
